Weather History for Portage Glacier, AK

Change the Weather History Date:

Tuesday, July 2, 2013

  Actual Average Record
Temperature  
Mean Temperature 50 °F -  
Max Temperature 53 °F - - ()
Min Temperature 46 °F - - ()
Degree Days  
Heating Degree Days 16    
Moisture  
Dew Point 46 °F    
Average Humidity 90    
Maximum Humidity 100    
Minimum Humidity 71    
Precipitation  
Precipitation 0.48 in - - ()
Sea Level Pressure  
Sea Level Pressure 29.79 in    
Wind  
Wind Speed 9 mph (ESE)    
Max Wind Speed 16 mph    
Max Gust Speed 29 mph    
Visibility 6 miles    
Events Rain    
T = Trace of Precipitation, MM = Missing Value Source: NWS Daily Summary

Daily Weather History Graph

Daily Weather History Graph

Search for Another Location

Airport:

Trip Planner

Search our weather history database for the weather conditions in past years. The results will help you decide how hot, cold, wet, or windy it might be!

Date:

Astronomy

Jul. 02, 2013 Rise Set
Actual Time 4:30 AM AKDT 11:27 PM AKDT
Civil Twilight 2:28 AM AKDT 1:25 AM AKDT
Nautical Twilight Sun does not rise Sun does not rise
Astronomical Twilight Sun does not rise Sun does not rise
Moon 1:38 AM AKDT (7/2) 6:02 PM AKDT (7/2)
Length of Visible Light 22h 56m
Length of Day
18h 57m
Waning Crescent, 25% of the Moon is Illuminated
Jul 2
Waning Crescent
Jul 7
New
Jul 15
First Quarter
Jul 22
Full
Jul 29
Last Quarter

Hourly Weather History & Observations

Time (AKDT) Temp. Windchill Dew Point Humidity Pressure Visibility Wind Dir Wind Speed Gust Speed Precip Events Conditions
12:53 AM 50.0 °F - 45.0 °F 83% 29.67 in 5.0 mi SE 16.1 mph 28.8 mph 0.20 in Rain Rain
1:53 AM 48.0 °F - 46.0 °F 93% 29.67 in 7.0 mi SE 10.4 mph 21.9 mph 0.07 in Rain Light Rain
2:53 AM 46.9 °F - 46.0 °F 97% 29.68 in 4.0 mi SSE 8.1 mph - 0.04 in Rain Light Rain
3:53 AM 48.0 °F - 46.0 °F 93% 29.68 in 6.0 mi SE 9.2 mph 16.1 mph 0.03 in Rain Light Rain
4:27 AM 46.9 °F - 46.0 °F 97% 29.68 in 3.0 mi SSE 8.1 mph 16.1 mph 0.02 in Rain Light Rain
4:53 AM 46.9 °F - 46.0 °F 97% 29.68 in 3.0 mi Variable 5.8 mph - 0.04 in Rain Light Rain
5:24 AM 46.9 °F - 46.0 °F 97% 29.68 in 3.0 mi Variable 5.8 mph - 0.02 in Rain Light Rain
5:47 AM 46.4 °F 43.5 °F 46.4 °F 100% 29.68 in 2.5 mi Variable 5.8 mph - 0.03 in Rain Light Rain
5:48 AM 46.9 °F - 46.9 °F 100% 29.69 in 2.5 mi Variable 5.8 mph - 0.03 in Rain Light Rain
6:07 AM 46.9 °F - 46.9 °F 100% 29.69 in 3.0 mi Variable 4.6 mph - 0.00 in Rain Light Rain
6:18 AM 48.0 °F - 46.9 °F 96% 29.69 in 2.0 mi Variable 3.5 mph - 0.00 in Rain Light Rain
6:43 AM 48.0 °F - 46.9 °F 96% 29.69 in 5.0 mi Variable 6.9 mph - 0.01 in Rain Light Rain
6:53 AM 48.0 °F - 46.9 °F 96% 29.69 in 6.0 mi Variable 6.9 mph - 0.01 in   Overcast
7:17 AM 48.0 °F - 46.9 °F 96% 29.70 in 2.5 mi SE 9.2 mph - 0.01 in Rain Light Rain
7:22 AM 48.0 °F - 46.9 °F 96% 29.70 in 3.0 mi SSE 9.2 mph 17.3 mph 0.01 in Rain Light Rain
7:35 AM 48.0 °F - 48.0 °F 100% 29.70 in 4.0 mi SSE 10.4 mph 18.4 mph 0.01 in Rain Light Rain
7:53 AM 48.9 °F - 46.9 °F 93% 29.71 in 10.0 mi SE 8.1 mph 19.6 mph 0.01 in   Overcast
8:53 AM 48.0 °F - 46.9 °F 96% 29.73 in 10.0 mi Variable 6.9 mph - N/A   Overcast
9:28 AM 50.0 °F - 46.0 °F 86% 29.74 in 10.0 mi Variable 5.8 mph - N/A   Overcast
9:40 AM 50.0 °F - 45.0 °F 83% 29.74 in 10.0 mi East 8.1 mph 17.3 mph N/A   Overcast
9:53 AM 51.1 °F - 45.0 °F 80% 29.75 in 10.0 mi East 10.4 mph 21.9 mph N/A   Overcast
10:12 AM 51.1 °F - 45.0 °F 80% 29.75 in 10.0 mi East 15.0 mph 23.0 mph N/A   Overcast
10:32 AM 52.0 °F - 45.0 °F 77% 29.76 in 10.0 mi East 13.8 mph 18.4 mph N/A   Overcast
10:53 AM 52.0 °F - 46.0 °F 80% 29.77 in 10.0 mi Variable 6.9 mph 19.6 mph N/A   Overcast
11:53 AM 53.1 °F - 44.1 °F 71% 29.79 in 10.0 mi ESE 11.5 mph 19.6 mph N/A   Overcast
12:53 PM 50.0 °F - 46.0 °F 86% 29.82 in 8.0 mi SE 6.9 mph - 0.00 in Rain Light Rain
1:35 PM 51.1 °F - 46.0 °F 83% 29.82 in 4.0 mi ESE 13.8 mph 21.9 mph 0.00 in Rain Light Rain
1:48 PM 51.8 °F - 46.4 °F 82% 29.83 in 8.0 mi Variable 6.9 mph 19.6 mph 0.00 in Rain Light Rain
1:53 PM 51.1 °F - 46.0 °F 83% 29.83 in 6.0 mi East 13.8 mph 26.5 mph 0.00 in Rain Light Rain
2:05 PM 51.1 °F - 46.0 °F 83% 29.83 in 8.0 mi ESE 13.8 mph 23.0 mph 0.00 in Rain Light Rain
2:13 PM 52.0 °F - 46.0 °F 80% 29.84 in 10.0 mi ESE 11.5 mph 25.3 mph 0.00 in Rain Light Rain
2:53 PM 50.0 °F - 46.0 °F 86% 29.85 in 2.5 mi ESE 13.8 mph 28.8 mph 0.00 in Rain Light Rain
2:55 PM 51.1 °F - 46.9 °F 86% 29.85 in 3.0 mi East 8.1 mph 28.8 mph 0.01 in Rain Light Rain
3:07 PM 51.1 °F - 46.0 °F 83% 29.85 in 3.0 mi East 10.4 mph 20.7 mph 0.01 in Rain Light Rain
3:53 PM 51.1 °F - 46.0 °F 83% 29.86 in 6.0 mi ESE 11.5 mph 21.9 mph 0.01 in Rain Light Rain
4:48 PM 50.0 °F - 46.4 °F 87% 29.86 in 6.0 mi SE 9.2 mph - 0.01 in Rain Light Rain
4:53 PM 50.0 °F - 46.9 °F 89% 29.86 in 8.0 mi SE 8.1 mph - 0.01 in Rain Light Rain
5:30 PM 50.0 °F - 46.9 °F 89% 29.87 in 7.0 mi Variable 5.8 mph 19.6 mph 0.02 in Rain Light Rain
5:48 PM 50.0 °F - 48.2 °F 94% 29.88 in 8.0 mi SE 8.1 mph - 0.02 in Rain Light Rain
5:53 PM 50.0 °F - 48.0 °F 93% 29.88 in 9.0 mi Variable 6.9 mph - 0.02 in Rain Light Rain
6:49 PM 48.2 °F - 46.4 °F 93% 29.89 in 9.0 mi SSE 4.6 mph - 0.00 in   Overcast
6:53 PM 48.9 °F - 46.9 °F 93% 29.89 in 10.0 mi Variable 4.6 mph - 0.00 in   Overcast
7:07 PM 48.9 °F - 46.9 °F 93% 29.89 in 10.0 mi SE 5.8 mph - 0.00 in Rain Light Rain
7:53 PM 48.9 °F - 48.0 °F 97% 29.90 in 6.0 mi SE 5.8 mph - 0.00 in Rain Light Rain
8:00 PM 48.9 °F - 46.9 °F 93% 29.90 in 8.0 mi Variable 5.8 mph - 0.00 in Rain Light Rain
8:33 PM 46.9 °F - 46.0 °F 97% 29.90 in 5.0 mi Variable 5.8 mph - 0.00 in Rain Light Rain
8:53 PM 46.9 °F - 46.0 °F 97% 29.90 in 6.0 mi East 5.8 mph - 0.00 in Rain Light Rain
9:53 PM 46.0 °F 42.5 °F 45.0 °F 96% 29.92 in 5.0 mi ESE 6.9 mph - 0.00 in Rain Light Rain
10:53 PM 46.9 °F - 46.0 °F 97% 29.93 in 10.0 mi ENE 5.8 mph - 0.01 in   Overcast
11:53 PM 46.9 °F - 46.0 °F 97% 29.95 in 10.0 mi East 8.1 mph - 0.00 in Rain Light Rain